Location: Lawrence Hall of Science
(37.8785°N, 122.2415°W)
Time: 20:50:14
(UTC-07:00)

Cosmos 1461 - Visible Passes

Search period start: 03 September 2015 00:00
Search period end: 13 September 2015 00:00
Orbit: 507 x 677 km, 65.0° (Epoch: 02 September)

Date Brightness Start Highest point End Pass type
(mag) Time Alt. Az. Time Alt. Az. Time Alt. Az.
03 Sep 4.3 21:12:34 10° N 21:16:45 29° NE 21:17:21 28° ENE visible
03 Sep 5.4 22:51:47 10° NW 22:53:55 22° WNW 22:53:55 22° WNW visible
04 Sep 3.6 21:20:56 10° NNW 21:25:36 46° NE 21:25:59 45° ENE visible
04 Sep 5.8 23:01:10 10° WNW 23:02:33 15° WNW 23:02:33 15° WNW visible
05 Sep 3.0 21:29:28 10° NNW 21:34:20 80° ENE 21:34:41 74° ESE visible
06 Sep 4.9 19:59:51 10° N 20:03:11 19° NE 20:06:36 10° E visible
06 Sep 3.5 21:38:11 10° NW 21:42:57 59° WSW 21:43:26 56° SW visible
07 Sep 4.3 20:07:58 10° N 20:12:08 29° NE 20:15:43 13° ESE visible
07 Sep 4.5 21:47:10 10° NW 21:51:31 33° WSW 21:52:19 31° SW visible
08 Sep 3.6 20:16:19 10° NNW 20:20:58 46° NE 20:24:41 15° SE visible
08 Sep 5.3 21:56:33 10° WNW 22:00:00 19° WSW 22:01:17 17° SW visible
09 Sep 3.2 20:24:50 10° NNW 20:29:42 79° ENE 20:33:46 14° SE visible
09 Sep 6.0 22:07:23 10° W 22:08:27 10° WSW 22:09:11 10° WSW visible
10 Sep 3.7 20:33:33 10° NW 20:38:20 59° WSW 20:42:56 10° SSE visible
11 Sep 4.8 20:42:31 10° NW 20:46:52 33° WSW 20:51:03 10° S visible
12 Sep 5.7 20:51:53 10° WNW 20:55:20 19° WSW 20:58:36 10° SSW visible
